Beatrice, NE

3:40 AM CST on November 20, 2019 (GMT -0600)
Beatrice Municipal

Weather History for KBIE - October, 2019

Change the Weather History Date:

Monday, October 21, 2019

  Actual Average Record
Temperature  
Mean Temperature 47 °F -  
Max Temperature 53 °F 68 °F 85 °F (1978)
Min Temperature 42 °F 43 °F 26 °F (1982)
Degree Days  
Heating Degree Days 18    
Moisture  
Dew Point 38 °F    
Average Humidity 68    
Maximum Humidity 80    
Minimum Humidity 52    
Precipitation  
Precipitation 0.00 in - - ()
Sea Level Pressure  
Sea Level Pressure 29.59 in    
Wind  
Wind Speed 15 mph (West)    
Max Wind Speed 29 mph    
Max Gust Speed 38 mph    
Visibility 10 miles    
Events      
Averages and records for this station are not official NWS values.
T = Trace of Precipitation, MM = Missing Value Source: NWS Daily Summary

Daily Weather History Graph

Daily Weather History Graph

Search for Another Location

Airport or City:

Astronomy

Oct. 21, 2019 Rise Set
Actual Time 7:44 AM CDT 6:38 PM CDT
Civil Twilight 7:16 AM CDT 7:06 PM CDT
Nautical Twilight 6:44 AM CDT 7:37 PM CDT
Astronomical Twilight 6:13 AM CDT 8:09 PM CDT
Moon No Moon Rise 3:03 PM CDT (10/21)
Length of Visible Light 11h 49m
Length of Day
10h 54m
Waning Gibbous, 48% of the Moon is Illuminated
Oct 21
Waning Gibbous
Oct 27
New
Nov 4
First Quarter
Nov 12
Full
Nov 19
Last Quarter

Hourly Weather History & Observations

Time (CDT) Temp. Windchill Dew Point Humidity Pressure Visibility Wind Dir Wind Speed Gust Speed Precip Events Conditions
12:15 AM 52.0 °F - 36.0 °F 54% 29.52 in 10.0 mi West 11.5 mph - N/A   Clear
12:35 AM 52.0 °F - 34.9 °F 52% 29.52 in 10.0 mi West 10.4 mph - N/A   Clear
12:55 AM 49.6 °F - 35.6 °F 59% 29.52 in 10.0 mi West 4.6 mph - N/A   Clear
1:15 AM 47.3 °F - 34.9 °F 62% 29.51 in 10.0 mi West 4.6 mph - N/A   Clear
1:35 AM 47.5 °F - 34.5 °F 61% 29.50 in 10.0 mi WSW 5.8 mph - N/A   Clear
1:55 AM 44.6 °F 39.7 °F 35.4 °F 70% 29.49 in 10.0 mi WSW 9.2 mph - N/A   Clear
2:15 AM 44.1 °F 39.5 °F 35.8 °F 73% 29.49 in 10.0 mi SW 8.1 mph - N/A   Clear
2:35 AM 43.7 °F 38.6 °F 35.6 °F 73% 29.49 in 10.0 mi WSW 9.2 mph - N/A   Clear
2:55 AM 43.7 °F 38.1 °F 35.6 °F 73% 29.49 in 10.0 mi WSW 10.4 mph - N/A   Clear
3:15 AM 45.0 °F 38.5 °F 36.5 °F 72% 29.48 in 10.0 mi WSW 13.8 mph 19.6 mph N/A   Clear
3:35 AM 45.3 °F 39.7 °F 36.9 °F 72% 29.47 in 10.0 mi WSW 11.5 mph - N/A   Clear
3:55 AM 45.7 °F 38.8 °F 37.4 °F 73% 29.47 in 10.0 mi West 16.1 mph 20.7 mph N/A   Clear
4:15 AM 45.5 °F 39.2 °F 37.6 °F 74% 29.48 in 10.0 mi West 13.8 mph 21.9 mph N/A   Clear
4:35 AM 45.1 °F 38.8 °F 37.6 °F 75% 29.48 in 10.0 mi West 13.8 mph 19.6 mph N/A   Clear
4:55 AM 44.2 °F 38.0 °F 37.6 °F 77% 29.49 in 10.0 mi West 12.7 mph 16.1 mph N/A   Clear
5:15 AM 43.9 °F 37.5 °F 37.8 °F 79% 29.49 in 10.0 mi West 12.7 mph - N/A   Clear
5:35 AM 43.7 °F 38.1 °F 37.8 °F 80% 29.48 in 10.0 mi West 10.4 mph - N/A   Clear
5:55 AM 43.7 °F 36.9 °F 37.4 °F 78% 29.49 in 10.0 mi West 13.8 mph 19.6 mph N/A   Clear
6:15 AM 43.2 °F 36.6 °F 36.9 °F 78% 29.48 in 10.0 mi West 12.7 mph 20.7 mph N/A   Clear
6:35 AM 42.8 °F 35.8 °F 36.3 °F 78% 29.48 in 10.0 mi West 13.8 mph 18.4 mph N/A   Clear
6:55 AM 42.1 °F 36.1 °F 36.0 °F 79% 29.49 in 10.0 mi West 10.4 mph 18.4 mph N/A   Clear
7:15 AM 42.6 °F 35.6 °F 36.0 °F 77% 29.47 in 10.0 mi West 13.8 mph 19.6 mph N/A   Clear
7:35 AM 42.8 °F 35.4 °F 35.8 °F 76% 29.47 in 10.0 mi West 15.0 mph 19.6 mph N/A   Clear
7:55 AM 42.4 °F 37.0 °F 35.8 °F 77% 29.46 in 10.0 mi West 9.2 mph 16.1 mph N/A   Clear
8:15 AM 43.2 °F 36.6 °F 36.0 °F 76% 29.46 in 10.0 mi West 12.7 mph - N/A   Clear
8:35 AM 45.3 °F 37.8 °F 36.5 °F 71% 29.45 in 10.0 mi West 18.4 mph 24.2 mph N/A   Mostly Cloudy
8:55 AM 46.6 °F - 36.5 °F 68% 29.46 in 10.0 mi West 26.5 mph 33.4 mph N/A   Overcast
9:15 AM 46.4 °F 39.2 °F 36.5 °F 68% 29.46 in 10.0 mi West 18.4 mph 32.2 mph N/A   Overcast
9:35 AM 46.4 °F 38.5 °F 36.5 °F 68% 29.46 in 10.0 mi WNW 21.9 mph 28.8 mph N/A   Overcast
9:55 AM 46.6 °F - 36.7 °F 68% 29.47 in 10.0 mi West 18.4 mph 24.2 mph N/A   Overcast
10:15 AM 47.5 °F - 37.2 °F 68% 29.48 in 10.0 mi West 21.9 mph 27.6 mph N/A   Overcast
10:35 AM 48.4 °F - 37.4 °F 66% 29.48 in 10.0 mi West 26.5 mph 33.4 mph N/A   Overcast
10:55 AM 49.6 °F - 37.8 °F 64% 29.49 in 10.0 mi WNW 20.7 mph 31.1 mph N/A   Overcast
11:15 AM 49.8 °F - 37.8 °F 63% 29.49 in 10.0 mi WNW 25.3 mph 33.4 mph N/A   Overcast
11:35 AM 50.7 °F - 37.9 °F 62% 29.50 in 10.0 mi WNW 25.3 mph 38.0 mph N/A   Overcast
11:55 AM 49.6 °F - 38.5 °F 65% 29.51 in 10.0 mi WNW 25.3 mph 33.4 mph N/A   Overcast
12:15 PM 50.4 °F - 39.2 °F 66% 29.52 in 10.0 mi West 17.3 mph 26.5 mph N/A   Overcast
12:35 PM 50.9 °F - 40.1 °F 67% 29.53 in 10.0 mi West 21.9 mph 26.5 mph N/A   Overcast
12:55 PM 51.8 °F - 40.6 °F 66% 29.54 in 10.0 mi West 21.9 mph 27.6 mph N/A   Overcast
1:15 PM 52.3 °F - 40.8 °F 65% 29.54 in 10.0 mi West 20.7 mph 33.4 mph N/A   Overcast
1:35 PM 52.7 °F - 40.5 °F 63% 29.56 in 10.0 mi West 20.7 mph 33.4 mph N/A   Overcast
1:55 PM 52.5 °F - 40.5 °F 64% 29.56 in 10.0 mi West 23.0 mph 33.4 mph N/A   Overcast
2:15 PM 52.7 °F - 39.9 °F 62% 29.56 in 10.0 mi WNW 24.2 mph 34.5 mph N/A   Overcast
2:35 PM 52.3 °F - 39.6 °F 62% 29.58 in 10.0 mi WNW 24.2 mph 33.4 mph N/A   Overcast
3:15 PM 52.2 °F - 39.2 °F 61% 29.59 in 10.0 mi WNW 25.3 mph 29.9 mph N/A   Overcast
3:35 PM 52.2 °F - 39.2 °F 61% 29.60 in 10.0 mi West 24.2 mph 29.9 mph N/A   Overcast
3:55 PM 51.8 °F - 39.2 °F 62% 29.61 in 10.0 mi West 19.6 mph 28.8 mph N/A   Overcast
4:15 PM 52.0 °F - 38.8 °F 61% 29.62 in 10.0 mi West 23.0 mph 28.8 mph N/A   Overcast
4:35 PM 52.9 °F - 38.8 °F 59% 29.63 in 10.0 mi WNW 26.5 mph 35.7 mph N/A   Mostly Cloudy
4:55 PM 52.3 °F - 39.0 °F 61% 29.64 in 10.0 mi WNW 24.2 mph 34.5 mph N/A   Mostly Cloudy
5:15 PM 51.3 °F - 39.2 °F 63% 29.66 in 10.0 mi WNW 20.7 mph 38.0 mph N/A   Overcast
5:35 PM 50.9 °F - 38.7 °F 63% 29.68 in 10.0 mi WNW 19.6 mph 33.4 mph N/A   Overcast
5:55 PM 50.9 °F - 38.7 °F 63% 29.69 in 10.0 mi WNW 21.9 mph 31.1 mph N/A   Overcast
6:35 PM 50.2 °F - 38.7 °F 65% 29.72 in 10.0 mi WNW 19.6 mph 35.7 mph N/A   Overcast
6:55 PM 48.9 °F - 39.2 °F 69% 29.74 in 10.0 mi NW 20.7 mph 34.5 mph N/A   Light Drizzle
7:15 PM 47.3 °F - 40.6 °F 78% 29.75 in 10.0 mi WNW 20.7 mph 31.1 mph N/A   Light Drizzle
7:35 PM 47.5 °F - 40.5 °F 77% 29.76 in 10.0 mi WNW 18.4 mph 26.5 mph N/A   Overcast
7:55 PM 47.7 °F - 40.1 °F 75% 29.77 in 10.0 mi WNW 20.7 mph 25.3 mph N/A   Overcast
8:15 PM 48.2 °F - 39.4 °F 72% 29.78 in 10.0 mi WNW 23.0 mph 33.4 mph N/A   Overcast
8:35 PM 48.2 °F - 39.2 °F 71% 29.78 in 10.0 mi WNW 18.4 mph - N/A   Overcast
8:55 PM 48.4 °F - 38.7 °F 69% 29.79 in 10.0 mi WNW 28.8 mph 36.8 mph N/A   Overcast
9:15 PM 47.7 °F - 37.9 °F 69% 29.80 in 10.0 mi WNW 19.6 mph 34.5 mph N/A   Mostly Cloudy
9:35 PM 46.8 °F - 37.6 °F 70% 29.82 in 10.0 mi NW 19.6 mph 32.2 mph N/A   Scattered Clouds
9:55 PM 46.2 °F 39.3 °F 37.4 °F 71% 29.83 in 10.0 mi WNW 17.3 mph 25.3 mph N/A   Scattered Clouds
10:15 PM 45.9 °F 38.8 °F 37.2 °F 72% 29.83 in 10.0 mi WNW 17.3 mph 28.8 mph N/A   Unknown
10:35 PM 46.2 °F 39.8 °F 36.3 °F 68% 29.84 in 10.0 mi WNW 15.0 mph 23.0 mph N/A   Scattered Clouds
10:55 PM 45.9 °F 39.1 °F 35.6 °F 67% 29.85 in 10.0 mi WNW 16.1 mph 20.7 mph N/A   Scattered Clouds
11:15 PM 46.8 °F - 34.0 °F 61% 29.85 in 10.0 mi WNW 17.3 mph - N/A   Clear
11:35 PM 46.4 °F 40.1 °F 33.1 °F 60% 29.85 in 10.0 mi WNW 15.0 mph - N/A   Clear
11:55 PM 46.2 °F 40.1 °F 32.5 °F 59% 29.85 in 10.0 mi WNW 13.8 mph - N/A   Clear